Regional Weather Roundup
Issued by NWS

Home | Current Version | Previous Version | Text Only | Print | Product List | Glossary On
Versions: 1 2 3 4 5 6 7 8 9 10 11 12 13 14 15 16 17 18 19 20 21 22 23 24 25 26 27 28 29 30 31 32 33 34 35 36 37 38 39 40 41 42 43 44 45 46 47 48 49 50
000
ASUS43 KMPX 211210
RWRMN
WEATHER ROUNDUP FOR MINNESOTA
NATIONAL WEATHER SERVICE TWIN CITIES/CHANHASSEN MN
700 AM CDT MON AUG 21 2017


NOTE: "FAIR" INDICATES FEW OR NO CLOUDS BELOW 12,000 FEET WITH NO
SIGNIFICANT WEATHER AND/OR OBSTRUCTIONS TO VISIBILITY. N/A MEANS
CURRENT SKY AND/OR WEATHER CONDITIONS ARE NOT AVAILABLE.

MNZ060>063-068>070-211300-
   Twin Cities Metro

CITY           SKY/WX    TMP DP  RH WIND       PRES   REMARKS
TWIN CITIES    CLOUDY    68  57  68 NE6       30.04F
6HR MIN TEMP:  66; 6HR MAX TEMP:  70;

ST PAUL        CLOUDY    67  60  78 SE3       30.05S
CRYSTAL        PTCLDY    64  56  75 NE3       30.04S
BLAINE         MOCLDY    63  61  94 NE5       30.05F
LAKEVILLE      TSTM      64  64 100 CALM      30.06R VSB 1/2
EDEN PRAIRIE   CLOUDY    67  59  75 CALM      30.04R
6HR MIN TEMP:  65; 6HR MAX TEMP:  69;

SOUTH ST PAUL  CLOUDY    67  58  75 CALM      30.04F
LAKE ELMO      CLOUDY    64  61  88 CALM      30.06F
$$
MNZ001>005-007-008-013>017-022>024-027-028-211300-
   Northwest Minnesota

CITY           SKY/WX    TMP DP  RH WIND       PRES   REMARKS
BEMIDJI        CLOUDY    50  50 100 CALM      30.06S
HALLOCK        CLOUDY    55  52  88 S3        30.01R
ROSEAU         MOCLDY    52  46  82 CALM      30.01R
WARROAD        MOCLDY    52  48  87 CALM      30.01S
THIEF RVR FALL CLOUDY    54  49  83 CALM      30.05R
CROOKSTON      PTCLDY    55  52  88 S3        30.04R
FOSSTON        PTCLDY    52  48  87 CALM      30.05R
DETROIT LAKES  CLOUDY    59  55  88 SE5       30.06R
MOORHEAD       LGT RAIN  59  55  88 SE6       30.03F
PARK RAPIDS    CLOUDY    57  53  86 SE6       30.05F
MAHNOMEN       FAIR      56  53  91 S5        30.04S
$$
MNZ006-009>011-018-025>026-211300-
   North Central Minnesota

CITY           SKY/WX    TMP DP  RH WIND       PRES   REMARKS
BAUDETTE       PTCLDY    49  45  86 CALM      30.02R
FLAG ISLAND    MOCLDY    63  46  55 W3        29.99R HAZE
INTL FALLS     MOCLDY    45  43  93 CALM      30.04R
6HR MIN TEMP:  43; 6HR MAX TEMP:  52;

WASKISH        CLOUDY    50  48  93 CALM      30.04S
BIG FORK       CLOUDY    45  43  93 CALM      30.06R
LONGVILLE      PTCLDY    52  52 100 CALM      30.08R
GRAND RAPIDS   MOCLDY    54  53  97 S5        30.10R
CRANE LAKE     CLOUDY    45  43  93 CALM      30.07S
ORR            CLOUDY    50  46  87 CALM      30.04R
COOK           CLOUDY    46  46 100 CALM      30.07S
WALKER         FAIR      52  50  93 CALM      30.05F
$$
MNZ012-019>021-037-211300-
   Northeast Minnesota

CITY           SKY/WX    TMP DP  RH WIND       PRES   REMARKS
DULUTH         CLOUDY    55  54  96 CALM      30.08R
6HR MIN TEMP:  49; 6HR MAX TEMP:  58;

ELY            PTCLDY    46  45  93 CALM      30.07S
HIBBING        MOCLDY    43  43 100 CALM      30.09R
EVELETH        CLOUDY    45  43  92 CALM      30.10R
DULUTH HARBOR  CLOUDY    59  55  88 SW3       30.08R
TWO HARBORS    CLOUDY    57  52  82 CALM      30.07R
SILVER BAY     CLOUDY    52  52 100 CALM      30.07R
GRAND MARAIS     N/A     64  51  62 CALM      30.03F
G MARAIS ARPRT CLEAR     50  45  81 N3        30.09S
$$
MNZ029>031-032-039>041-046>048-054>057-064-211300-
   West Central Minnesota

CITY           SKY/WX    TMP DP  RH WIND       PRES   REMARKS
FERGUS FALLS   CLOUDY    59  59 100 SE3       30.04S
WHEATON        MOCLDY    55  54  94 CALM      30.05F
MORRIS         CLOUDY    57  55  94 E3        30.03F
ALEXANDRIA     MOCLDY    59  55  87 E3        30.06F
ELBOW LAKE     FAIR      60  55  83 SE5       30.04F
WADENA         CLOUDY    54  54 100 CALM      30.05F
GLENWOOD       PTCLDY    59  55  88 E5        30.06R
APPLETON       CLOUDY    57  54  88 CALM      30.03R
BENSON         CLOUDY    57  55  94 NE3       30.05S
ORTONVILLE     CLOUDY    57  55  94 MISG      30.03F
MADISON        CLOUDY    59  59 100 CALM      30.03R
WILLMAR        FAIR      63  59  88 E7        30.04S
$$
MNZ033>034-036-042>043-049>051-058-059-211300-
   Central Minnesota

CITY           SKY/WX    TMP DP  RH WIND       PRES   REMARKS
ST CLOUD       CLOUDY    58  58 100 E3        30.05R
6HR MIN TEMP:  54; 6HR MAX TEMP:  59;

SAUK CENTRE    PTSUNNY   59  55  86 CALM      30.06S
PAYNESVILLE    CLOUDY    58  57  96 E5        30.05F
AITKIN         CLOUDY    52  48  87 CALM      30.06S
PINE RIVER     PTCLDY    52  52 100 CALM      30.10S
BRAINERD       CLOUDY    57  55  93 CALM      30.06F
STAPLES        MOCLDY    55  54  94 CALM      30.06F
LONG PRAIRIE   MOCLDY    55  54  94 CALM      30.06S
LITTLE FALLS   CLOUDY    55  54  94 CALM      30.06S
LITCHFIELD     CLOUDY    61  59  94 SE7       30.04F
BUFFALO        CLOUDY    60  57  89 CALM      30.06S
MAPLE LAKE     CLOUDY    62  61  94 NE5       30.06R
HUTCHINSON     CLOUDY    63  61  95 E6        30.05S
$$
MNZ037-044-045-052-053-211300-
   East Central Minnesota

CITY           SKY/WX    TMP DP  RH WIND       PRES   REMARKS
PRINCETON      CLOUDY    61  59  94 CALM      30.06R
MORA           CLOUDY    55  55 100 CALM      30.08S
CAMBRIDGE      CLOUDY    61  61 100 CALM      30.07R
RUSH CITY      CLOUDY    57  56  95 CALM      30.07R
MOOSE LAKE     CLOUDY    52  52 100 CALM      30.06S
HINCKLEY       PTSUNNY   55  55 100 SE6       30.06S
CLOQUET        CLOUDY    54  52  94 CALM      30.07S
MCGREGOR       CLOUDY    52  50  93 CALM      30.07F
$$
MNZ071>073-080-081-089-090-097-098-211300-
   Southwest Minnesota

CITY           SKY/WX    TMP DP  RH WIND       PRES   REMARKS
MONTEVIDEO     MOCLDY    57  57 100 CALM      30.03R
GRANITE FALLS  CLOUDY    63  61  93 NE6       30.03S
CANBY          CLOUDY    61  59  94 CALM      30.03S
MARSHALL       PTCLDY    63  61  94 E6        30.01F
REDWOOD FALLS  MOCLDY    63  60  90 E9        30.01F
OLIVIA         MOCLDY    63  59  88 E9        30.01F
PIPESTONE      CLOUDY    66  63  88 CALM      30.01S
WINDOM         CLEAR     64  63  94 CALM      30.01F FOG
WORTHINGTON    CLOUDY    66  66 100 SE8       30.01F FOG
JACKSON        CLOUDY    66  64  94 CALM      30.01F
TRACY          CLOUDY    63  63  99 CALM      30.02S
SLAYTON        CLOUDY    64  60  85 E6        30.03S
$$
MNZ065>067-074>077-082>085-091>093-211300-
   South Central Minnesota

CITY           SKY/WX    TMP DP  RH WIND       PRES   REMARKS
MANKATO        CLOUDY    68  66  93 N6        30.04R
NEW ULM        CLOUDY    66  63  88 E6        30.02F
ST JAMES       CLOUDY    64  64 100 N6        30.02R FOG
FAIRMONT       CLOUDY    67  65  93 S8        30.01F
GLENCOE        CLOUDY    64  64  99 CALM      30.04F
FARIBAULT      CLOUDY    66  64  94 CALM      30.04F
OWATONNA       LGT RAIN  68  64  88 NW12      30.01F
WASECA         CLOUDY    68  64  88 S6        30.04F
ALBERT LEA     CLOUDY    70  66  88 CALM      30.04R
$$
MNZ078>079-086>088-094>096-211300-
   Southeast Minnesota

CITY           SKY/WX    TMP DP  RH WIND       PRES   REMARKS
ROCHESTER      CLOUDY    64  64 100 S3        30.04F
6HR MIN TEMP:  64; 6HR MAX TEMP:  67;

RED WING       CLOUDY    68  63  83 E5        30.02F
STANTON        CLOUDY    68  65  89 CALM      30.01F
DODGE CENTER   LGT RAIN  66  64  94 SE5       30.03F
WINONA         CLOUDY    70  68  94 CALM      30.04F
AUSTIN         CLOUDY    66  64  94 CALM      30.03F FOG
PRESTON        CLOUDY    65  64  93 NE3       30.05F FOG
$$
ABBREVIATIONS USED IN REMARKS
   TC - TEMPERATURES IN CELSIUS
  WCI - WIND CHILL INDEX
   HX - HEAT INDEX
  VSB - VISIBILITY
$$




USA.gov is the U.S. government's official web portal to all federal, state and local government web resources and services.